SCP
0 0 0 0 0 0 0 0 0 0 0 0 0 0 0 0 0 0 0 0 -0 -0 -0 -0 -0 -0 -0 -0 -0 -0 -0 -0 -0 -0 -0 -0 -0 -0 -0 -0 -0 -0 -0 -0 -0 -0 -0 0 0
0 0 0 0 0 0 0 0 0 0 0 0 0 0 0 0 0 0 0 -0 -1 -0 -0 -0 -0 -0 -0 -0 -0 -0 -0 -0 -0 -0 -0 -0 -0 -0 -0 -0 -0 -0 -0 -0 -0 -0 -0 0 0
0 0 0 0 0 0 0 -0 0 0 0 0 0 0 0 0 0 0 0 0 -0 0 0 -0 -0 0 0 -0 -0 -0 -0 -0 -0 -0 -0 -0 -0 -0 -0 -0 -0 -0 -0 -0 -0 -0 -0 0 -0
0 0 0 0 0 0 0 0 0 0 0 0 0 0 0 0 0 0 0 0 0 1 0 -0 0 0 -0 -0 -0 -0 -0 -0 -0 -0 -0 -0 -0 0 0 0 -0 -0 -0 -0 -0 -0 0 -0 -0
0 0 0 0 0 0 0 0 -0 0 0 0 0 0 1 0 0 0 0 0 1 1 1 0 0 0 0 -0 -0 -0 -0 -0 -0 -0 -0 -0 -0 0 0 0 0 0 0 0 0 0 0 0 -0
0 0 0 0 0 0 0 0 0 0 0 0 0 1 0 0 0 0 0 1 1 1 1 1 1 0 0 0 0 0 0 0 0 0 0 0 0 0 0 0 0 0 0 0 0 0 0 0 -0
0 0 0 0 0 0 0 0 0 0 0 0 0 1 1 0 0 1 1 1 1 1 2 1 1 1 0 0 0 0 0 0 0 0 0 0 0 0 0 0 0 0 0 0 0 0 0 0 0
0 0 0 0 0 0 0 0 0 0 0 0 -0 1 1 0 1 1 1 1 1 1 1 1 2 1 1 1 0 0 0 0 0 0 0 0 0 0 0 0 0 0 0 0 0 0 0 0 0
0 0 0 0 0 0 0 0 0 0 0 0 0 1 0 1 1 1 1 1 1 1 1 1 1 1 1 1 0 1 0 0 0 0 0 0 0 0 0 0 0 0 0 0 0 0 0 0 0
0 0 0 0 0 0 0 0 0 0 0 0 1 1 1 1 2 2 1 1 0 0 0 1 1 1 1 1 1 1 1 1 1 1 1 0 0 0 0 0 0 0 0 0 0 0 0 0 0
0 0 0 0 0 0 0 0 0 0 0 0 0 -0 1 2 2 2 1 1 0 0 0 1 1 1 1 1 1 2 2 1 1 1 1 0 0 0 0 0 0 0 0 0 0 0 0 0 0
0 0 0 0 0 0 0 0 0 0 0 0 0 0 1 1 1 1 1 1 0 1 1 1 1 1 1 2 2 2 2 1 1 1 1 0 0 0 0 0 0 0 0 0 0 0 0 0 0
0 0 0 0 0 0 0 0 0 0 0 0 0 0 1 1 1 1 0 0 0 0 1 1 1 1 1 1 2 2 2 1 1 1 1 0 0 0 0 0 0 0 0 0 0 0 0 0 0
0 0 0 0 0 0 0 0 0 0 0 0 0 1 1 1 1 0 0 0 0 0 0 1 1 0 1 2 2 1 1 1 1 1 0 0 0 0 0 0 0 0 0 0 0 0 0 0 0
0 0 0 0 0 0 0 0 0 0 0 0 0 0 1 1 1 0 0 0 0 0 0 1 0 0 1 1 0 0 0 0 0 0 0 0 0 0 0 0 0 0 0 0 0 0 0 0 0
0 0 0 0 0 0 0 0 0 0 0 0 0 0 0 0 0 0 0 0 0 0 0 0 1 0 1 0 0 0 0 0 0 0 0 0 0 0 0 0 0 0 0 0 0 0 0 0 0
0 0 0 0 0 0 0 0 0 0 0 0 0 0 0 0 0 0 0 0 0 0 0 0 1 0 1 0 0 0 0 0 0 0 1 1 1 1 0 0 0 0 0 0 0 0 0 0 0
0 0 0 0 0 0 0 0 0 0 0 0 0 0 0 0 0 0 0 0 0 0 0 0 1 1 0 0 0 0 0 0 0 0 0 0 0 0 0 0 1 1 3 0 0 0 0 0 0
0 0 0 0 0 0 0 0 0 0 0 0 0 0 0 0 0 0 0 0 0 0 0 0 0 0 1 1 0 0 0 0 1 0 0 0 0 0 0 0 0 1 1 0 0 0 0 0 0
0 0 0 0 0 0 0 0 0 0 0 0 0 0 0 0 0 0 1 0 0 0 0 0 0 0 1 1 0 0 0 0 0 0 0 0 0 0 0 0 0 0 0 1 0 0 0 0 0
0 0 0 0 0 0 0 0 0 0 0 0 0 0 0 0 0 0 0 0 0 0 0 0 0 0 0 0 0 0 0 0 0 0 0 0 0 0 0 0 0 0 0 0 0 0 0 0 0
0 0 0 0 0 0 0 0 0 0 0 0 0 0 0 0 0 0 0 0 0 0 0 0 0 0 0 0 0 0 0 0 0 0 0 0 0 0 0 0 0 0 0 0 0 0 0 0 0
0 0 0 0 0 0 0 0 0 0 0 0 0 0 0 0 0 0 0 0 0 0 0 0 0 0 0 0 0 0 0 0 0 0 0 0 0 0 0 0 0 0 0 0 0 0 0 0 0
0 0 0 0 0 0 0 0 0 0 0 0 0 0 0 0 0 0 0 0 0 0 1 1 0 0 0 0 0 0 0 0 0 0 0 0 0 0 0 0 -0 0 0 0 0 0 0 0 0
0 0 0 0 0 0 0 0 0 0 0 0 0 0 0 0 0 0 0 0 0 0 0 0 0 0 0 0 0 0 0 0 0 0 0 0 0 0 0 0 0 0 0 0 0 0 0 0 0
0 0 0 0 0 0 0 0 0 0 0 0 0 0 0 0 0 0 0 0 0 0 0 0 0 0 0 0 0 0 0 0 0 0 0 0 0 0 0 0 0 0 0 0 0 0 0 0 0
0 0 0 0 0 0 0 0 0 0 0 0 0 0 0 0 0 0 0 0 0 0 0 0 0 0 0 0 0 0 0 0 0 0 0 0 0 0 0 0 0 0 0 0 0 0 0 0 0
0 0 0 0 0 0 0 0 0 0 0 0 0 0 0 0 0 0 0 0 0 0 0 0 0 0 0 0 0 0 0 0 0 0 0 0 0 0 0 0 0 0 0 0 0 0 0 0 0
0 0 0 0 0 0 0 0 0 0 0 0 0 0 0 0 0 0 0 0 0 0 0 0 0 0 0 0 0 0 0 0 0 0 0 0 0 0 0 0 0 0 0 0 0 0 0 0 0
0 0 0 0 0 0 0 0 0 0 0 0 0 0 0 0 0 0 0 0 0 0 0 0 0 0 0 0 0 0 0 0 0 0 0 0 0 0 0 0 0 0 0 0 0 0 0 0 0
Wind_Speed_500mb
22 19 13 5 5 8 10 16 5 9 10 11 51 12 18 22 10 9 17 53 57 76 76 70 64 58 52 47 43 39 36 35 37 39 38 37 37 39 42 41 37 33 31 30 30 29 29 30 31
15 17 10 5 9 4 12 9 26 5 21 40 49 8 1 6 6 4 43 58 54 73 75 71 65 60 54 49 44 40 35 31 34 38 39 38 40 43 45 40 35 30 29 30 29 29 27 27 29
10 19 10 8 9 13 15 9 9 7 40 45 15 19 15 12 19 4 19 54 67 72 72 69 65 60 55 50 44 41 35 30 33 38 38 40 43 46 43 39 34 29 27 27 28 28 27 27 28
12 13 4 6 17 21 25 8 8 12 47 12 25 17 3 12 8 10 39 49 69 67 69 66 62 58 53 49 45 41 37 32 30 35 38 40 42 43 42 38 32 28 26 26 26 27 27 25 24
16 8 4 6 16 16 14 10 2 7 18 43 38 16 0 7 9 16 55 46 72 67 68 64 59 55 51 47 43 40 37 34 30 32 38 40 42 42 40 36 32 29 26 25 26 26 27 27 24
9 6 4 17 17 29 10 23 8 6 30 42 25 5 10 5 12 28 51 52 69 63 64 62 56 51 46 44 42 39 36 35 31 30 34 38 39 40 39 36 33 28 26 24 23 23 24 25 25
11 8 12 10 12 23 10 12 11 18 20 11 34 9 9 16 21 32 40 52 62 59 60 61 57 52 47 42 41 40 38 35 31 27 29 35 38 39 39 37 34 28 25 23 22 21 20 20 22
10 8 8 12 15 13 9 10 19 15 27 17 26 9 12 39 39 42 46 48 53 52 50 54 54 52 49 47 44 41 39 38 35 30 28 30 36 37 37 36 33 29 26 23 22 20 19 19 19
16 4 9 11 15 12 11 5 5 16 33 30 20 20 32 58 52 52 52 46 51 46 44 45 47 51 49 47 45 44 44 42 39 36 31 31 32 36 37 37 35 32 29 26 24 23 22 20 19
12 10 18 12 12 6 14 11 20 13 33 14 23 7 32 61 62 64 57 51 45 38 38 47 51 50 49 48 47 46 48 47 44 41 39 37 34 34 38 39 37 34 32 29 27 25 23 21 18
14 17 9 11 14 30 22 19 34 14 21 17 7 25 53 66 68 65 59 50 41 33 34 40 47 55 56 53 51 50 50 48 46 43 41 40 37 37 40 42 42 39 37 34 30 28 27 23 22
12 14 23 12 28 21 6 19 17 30 40 30 35 27 54 73 76 75 61 51 33 52 44 52 51 60 64 59 55 52 51 52 50 47 46 45 42 42 41 42 43 43 38 35 32 31 29 27 26
10 8 24 44 42 45 54 35 32 58 50 52 45 27 65 79 84 69 56 62 49 60 66 60 59 64 66 57 54 55 53 47 44 46 45 44 46 44 41 43 45 44 40 38 35 35 36 33 32
12 40 44 29 45 37 14 22 34 46 27 43 31 20 58 79 81 68 71 60 63 62 56 59 50 60 63 56 54 50 46 38 41 40 42 44 43 43 44 44 44 43 38 34 31 26 27 28 25
35 15 13 14 21 17 31 28 47 41 20 26 31 24 33 71 77 72 73 68 62 72 63 55 58 57 55 55 53 46 48 41 41 40 34 41 40 43 45 44 42 36 33 36 37 35 33 35 35
10 11 22 8 15 20 24 37 22 33 35 42 34 31 37 54 73 70 68 71 65 59 39 46 46 49 51 53 53 49 45 41 36 33 34 43 42 44 44 45 42 36 36 37 39 39 42 42 41
7 5 7 8 21 15 21 5 19 32 32 28 24 30 38 48 60 65 70 72 71 62 52 50 51 52 57 56 56 55 53 47 40 31 26 37 43 44 43 42 45 39 38 50 55 51 54 48 42
11 8 10 13 8 14 15 11 19 39 28 35 38 34 38 46 62 62 65 69 73 68 60 59 54 51 58 67 62 59 58 58 62 59 38 44 53 45 41 40 40 55 50 67 69 66 55 52 52
12 13 10 9 14 11 12 11 21 26 25 18 33 30 37 39 44 67 63 68 79 71 65 63 59 52 57 70 76 69 74 71 67 66 57 74 75 72 66 69 73 74 62 79 72 57 55 53 53
30 21 10 8 10 6 14 18 20 14 12 29 45 44 43 46 48 57 62 59 65 63 61 63 60 59 60 68 69 71 71 60 54 53 64 79 85 81 39 37 58 79 92 71 97 56 63 62 64
35 28 12 11 8 3 3 17 10 15 13 32 41 53 49 51 53 64 69 65 60 59 59 59 64 58 51 51 62 70 65 61 61 66 69 78 81 84 81 84 79 73 65 90 66 67 65 61 58
39 19 16 17 4 4 7 9 12 11 13 3 30 42 53 50 46 60 73 71 69 69 65 64 64 65 67 70 68 62 52 57 49 55 64 70 74 75 64 63 63 49 51 63 71 58 47 52 59
24 25 21 18 10 1 3 4 14 7 8 7 9 22 36 41 52 59 69 70 72 75 75 69 63 57 55 52 52 53 53 48 29 27 26 27 36 27 33 23 21 30 36 42 44 38 37 35 32
14 14 14 6 9 9 11 13 12 3 10 6 8 26 18 9 19 32 54 68 79 81 78 64 57 46 41 39 41 41 40 36 32 29 29 32 33 43 26 31 36 38 36 41 43 39 35 45 55
30 19 5 4 7 10 18 10 4 15 15 8 16 29 24 16 13 17 34 54 66 62 62 57 48 37 25 22 24 21 20 19 16 20 31 28 31 32 34 37 38 45 44 44 51 48 50 53 59
36 19 11 11 10 9 14 11 4 8 8 29 45 42 37 36 36 38 35 46 54 53 51 47 42 37 28 23 18 11 10 11 5 9 19 20 28 33 38 42 45 46 49 53 46 49 49 54 50
20 26 19 8 2 11 11 6 8 9 20 27 36 48 45 50 55 58 55 58 60 58 53 46 41 38 29 20 15 10 8 9 9 13 14 19 19 14 17 19 23 31 31 32 31 36 39 48 55
20 20 13 4 8 8 2 7 10 5 15 18 21 36 46 61 73 74 74 70 63 55 47 38 33 28 24 19 16 13 8 2 4 8 15 23 19 19 17 19 21 25 30 33 36 40 45 51 55
16 16 9 13 5 10 8 5 9 8 8 25 20 39 56 63 60 59 60 58 55 50 47 44 39 36 32 25 18 12 10 11 12 9 9 9 14 21 26 27 29 32 36 38 41 45 51 55 59
11 13 12 10 7 6 9 4 2 8 7 18 31 53 62 66 66 66 63 63 59 55 47 42 36 30 26 19 14 12 9 10 8 12 12 18 24 32 35 39 42 42 43 46 48 50 52 54 57
Wind_Direction_500mb
248 240 260 294 41 59 267 253 243 298 311 346 326 263 190 185 171 213 155 165 171 169 169 169 169 167 165 163 161 158 159 159 164 166 166 166 164 161 159 157 155 150 144 141 137 134 128 122 123
239 219 215 142 115 148 259 237 242 320 295 326 324 285 246 344 8 186 157 167 174 172 172 171 171 170 169 166 165 162 159 157 160 163 164 166 164 162 160 161 158 152 149 145 143 140 133 129 134
197 187 166 151 167 196 235 210 105 324 312 322 306 342 345 358 356 190 188 169 174 174 174 172 173 173 172 170 172 167 163 161 161 166 167 167 167 165 166 166 161 158 154 151 151 150 148 145 143
160 164 130 151 208 242 228 150 21 358 318 324 340 314 56 1 359 284 170 175 176 177 175 176 175 176 176 177 178 175 172 168 166 168 169 169 170 171 172 170 166 164 161 159 160 161 163 164 164
178 151 128 230 249 252 241 255 339 293 289 287 335 284 340 347 28 160 172 174 179 178 177 178 179 180 180 181 184 182 182 178 172 173 175 173 173 176 177 175 175 174 171 170 169 170 173 179 179
161 133 120 219 231 250 268 263 254 243 288 295 334 335 296 130 142 143 172 174 180 180 178 179 180 182 186 187 189 190 191 191 183 179 183 181 181 182 183 184 184 184 181 181 182 179 178 181 187
166 123 214 213 242 261 244 250 225 256 267 324 306 167 244 165 156 162 167 172 178 183 181 181 183 184 188 193 198 198 199 200 197 193 192 191 190 188 188 188 188 193 194 191 193 192 189 190 194
213 135 200 221 211 260 273 211 246 289 281 326 333 214 223 179 179 170 157 169 178 177 181 189 192 192 192 195 197 200 206 207 207 206 205 207 201 198 196 196 198 203 203 201 202 203 205 205 206
202 208 223 211 174 233 229 139 263 272 289 329 339 264 257 182 177 165 156 162 173 179 184 193 203 205 202 201 203 201 202 205 210 215 217 219 215 211 208 208 208 211 211 210 211 211 214 217 220
183 204 213 200 198 256 263 290 300 292 298 329 313 321 188 171 179 168 160 151 159 174 201 202 206 211 212 212 211 207 206 205 207 212 218 226 226 223 219 219 219 219 219 218 219 222 226 227 232
207 235 209 246 237 231 256 285 270 260 282 308 196 176 175 173 182 172 165 177 177 165 186 201 214 213 214 215 217 215 213 211 213 218 224 231 233 234 231 225 224 226 226 226 228 231 233 234 237
229 213 224 249 244 259 248 280 274 247 258 279 289 239 199 187 189 191 187 191 191 203 226 219 209 211 213 214 217 218 217 217 219 222 227 232 238 241 240 237 233 232 234 238 240 242 245 244 245
227 242 224 234 256 261 268 266 274 269 266 276 284 240 211 198 196 198 212 203 213 207 201 204 208 211 213 213 216 218 218 220 225 229 233 240 243 246 249 246 241 239 237 241 244 251 252 251 251
216 214 239 249 255 257 255 267 252 271 275 265 235 219 213 206 199 201 193 202 207 203 216 219 213 212 213 216 219 222 222 219 228 233 243 249 253 255 254 249 245 243 244 246 244 252 257 250 251
251 273 279 233 234 234 250 264 253 269 255 238 246 208 206 212 206 208 209 217 218 216 235 227 217 212 216 221 223 221 225 218 226 236 243 250 254 259 258 253 246 245 243 246 255 264 261 250 250
189 162 250 212 194 242 182 253 280 281 230 229 227 207 190 196 201 209 217 221 219 221 220 225 224 224 217 219 220 214 210 209 216 234 245 253 251 249 253 253 248 252 254 255 257 257 258 260 259
280 202 185 265 194 215 179 147 256 236 193 200 202 210 205 202 209 209 213 213 213 208 218 228 229 221 215 217 217 213 214 218 222 239 234 254 254 252 250 247 247 241 264 258 259 255 262 264 257
208 194 221 212 228 212 241 217 268 265 232 221 228 230 216 216 211 211 212 211 210 211 224 239 236 228 224 220 216 217 220 234 253 244 239 246 259 261 254 249 251 251 252 260 262 254 250 256 261
218 226 210 190 239 201 244 231 256 260 250 236 239 227 215 212 220 211 214 218 221 227 229 229 230 226 221 219 221 229 226 236 254 239 230 227 236 240 229 238 263 249 242 256 257 257 259 261 263
229 237 213 269 264 175 278 268 257 261 233 235 243 238 219 213 209 211 215 220 216 215 218 219 223 226 225 226 235 235 243 257 246 234 239 242 241 235 235 257 261 257 248 239 262 252 256 260 261
213 216 167 200 11 275 356 305 295 274 225 242 253 253 248 215 211 209 210 212 219 221 216 212 216 220 224 229 237 240 246 249 250 250 252 250 244 247 255 271 279 264 237 248 275 263 257 258 267
213 177 193 233 123 217 115 271 304 260 230 208 249 255 255 245 222 213 212 212 217 213 215 208 215 222 226 229 230 230 239 252 262 267 262 261 264 266 271 271 266 241 233 248 266 267 271 272 263
210 178 195 222 176 304 244 42 271 301 116 204 250 252 249 248 242 224 210 216 219 213 209 210 210 214 219 223 226 235 237 238 234 252 264 263 246 268 252 226 251 238 230 244 258 266 272 275 283
137 161 200 169 117 241 205 159 281 357 314 201 85 37 21 304 256 227 216 216 213 212 208 207 210 215 214 215 219 223 235 230 231 257 274 274 257 247 259 234 225 252 239 246 251 257 267 281 270
177 155 174 195 191 211 157 151 240 309 304 310 98 65 60 70 98 141 177 197 202 197 202 203 207 201 196 198 206 212 226 245 255 260 281 272 266 252 243 243 238 243 245 240 241 252 247 262 265
190 154 163 170 152 158 143 198 247 311 21 75 90 92 91 94 106 111 127 154 164 166 169 173 173 168 170 172 169 159 140 118 89 344 318 311 274 259 252 245 248 247 246 247 244 236 248 250 255
186 197 200 66 286 110 145 114 106 49 52 62 74 82 85 102 107 109 117 123 128 128 128 134 138 131 123 104 84 65 47 51 33 327 283 243 236 229 223 230 240 251 254 252 257 262 258 252 255
167 167 178 120 178 126 156 128 147 101 91 87 84 91 94 104 105 106 107 108 110 112 113 116 119 118 112 113 103 94 99 117 238 224 235 237 256 264 265 256 258 259 262 261 262 262 264 263 265
205 186 163 136 148 148 133 187 167 169 152 129 121 113 113 110 107 108 109 109 109 111 109 104 102 101 97 93 87 78 49 28 4 329 287 283 277 284 291 296 289 283 282 282 280 279 278 279 279
145 198 157 155 210 55 116 231 99 153 132 134 123 123 119 118 118 119 117 116 112 108 106 101 96 90 85 78 60 44 22 357 323 311 305 303 303 301 302 301 301 299 295 294 293 293 292 292 292
Wind_Speed_850mb
22 19 13 5 5 8 10 16 5 9 10 11 51 12 18 22 10 9 17 53 57 76 76 70 64 58 52 47 43 39 36 35 37 39 38 37 37 39 42 41 37 33 31 30 30 29 29 30 31
15 17 10 5 9 4 12 9 26 5 21 40 49 8 1 6 6 4 43 58 54 73 75 71 65 60 54 49 44 40 35 31 34 38 39 38 40 43 45 40 35 30 29 30 29 29 27 27 29
10 19 10 8 9 13 15 9 9 7 40 45 15 19 15 12 19 4 19 54 67 72 72 69 65 60 55 50 44 41 35 30 33 38 38 40 43 46 43 39 34 29 27 27 28 28 27 27 28
12 13 4 6 17 21 25 8 8 12 47 12 25 17 3 12 8 10 39 49 69 67 69 66 62 58 53 49 45 41 37 32 30 35 38 40 42 43 42 38 32 28 26 26 26 27 27 25 24
16 8 4 6 16 16 14 10 2 7 18 43 38 16 0 7 9 16 55 46 72 67 68 64 59 55 51 47 43 40 37 34 30 32 38 40 42 42 40 36 32 29 26 25 26 26 27 27 24
9 6 4 17 17 29 10 23 8 6 30 42 25 5 10 5 12 28 51 52 69 63 64 62 56 51 46 44 42 39 36 35 31 30 34 38 39 40 39 36 33 28 26 24 23 23 24 25 25
11 8 12 10 12 23 10 12 11 18 20 11 34 9 9 16 21 32 40 52 62 59 60 61 57 52 47 42 41 40 38 35 31 27 29 35 38 39 39 37 34 28 25 23 22 21 20 20 22
10 8 8 12 15 13 9 10 19 15 27 17 26 9 12 39 39 42 46 48 53 52 50 54 54 52 49 47 44 41 39 38 35 30 28 30 36 37 37 36 33 29 26 23 22 20 19 19 19
16 4 9 11 15 12 11 5 5 16 33 30 20 20 32 58 52 52 52 46 51 46 44 45 47 51 49 47 45 44 44 42 39 36 31 31 32 36 37 37 35 32 29 26 24 23 22 20 19
12 10 18 12 12 6 14 11 20 13 33 14 23 7 32 61 62 64 57 51 45 38 38 47 51 50 49 48 47 46 48 47 44 41 39 37 34 34 38 39 37 34 32 29 27 25 23 21 18
14 17 9 11 14 30 22 19 34 14 21 17 7 25 53 66 68 65 59 50 41 33 34 40 47 55 56 53 51 50 50 48 46 43 41 40 37 37 40 42 42 39 37 34 30 28 27 23 22
12 14 23 12 28 21 6 19 17 30 40 30 35 27 54 73 76 75 61 51 33 52 44 52 51 60 64 59 55 52 51 52 50 47 46 45 42 42 41 42 43 43 38 35 32 31 29 27 26
10 8 24 44 42 45 54 35 32 58 50 52 45 27 65 79 84 69 56 62 49 60 66 60 59 64 66 57 54 55 53 47 44 46 45 44 46 44 41 43 45 44 40 38 35 35 36 33 32
12 40 44 29 45 37 14 22 34 46 27 43 31 20 58 79 81 68 71 60 63 62 56 59 50 60 63 56 54 50 46 38 41 40 42 44 43 43 44 44 44 43 38 34 31 26 27 28 25
35 15 13 14 21 17 31 28 47 41 20 26 31 24 33 71 77 72 73 68 62 72 63 55 58 57 55 55 53 46 48 41 41 40 34 41 40 43 45 44 42 36 33 36 37 35 33 35 35
10 11 22 8 15 20 24 37 22 33 35 42 34 31 37 54 73 70 68 71 65 59 39 46 46 49 51 53 53 49 45 41 36 33 34 43 42 44 44 45 42 36 36 37 39 39 42 42 41
7 5 7 8 21 15 21 5 19 32 32 28 24 30 38 48 60 65 70 72 71 62 52 50 51 52 57 56 56 55 53 47 40 31 26 37 43 44 43 42 45 39 38 50 55 51 54 48 42
11 8 10 13 8 14 15 11 19 39 28 35 38 34 38 46 62 62 65 69 73 68 60 59 54 51 58 67 62 59 58 58 62 59 38 44 53 45 41 40 40 55 50 67 69 66 55 52 52
12 13 10 9 14 11 12 11 21 26 25 18 33 30 37 39 44 67 63 68 79 71 65 63 59 52 57 70 76 69 74 71 67 66 57 74 75 72 66 69 73 74 62 79 72 57 55 53 53
30 21 10 8 10 6 14 18 20 14 12 29 45 44 43 46 48 57 62 59 65 63 61 63 60 59 60 68 69 71 71 60 54 53 64 79 85 81 39 37 58 79 92 71 97 56 63 62 64
35 28 12 11 8 3 3 17 10 15 13 32 41 53 49 51 53 64 69 65 60 59 59 59 64 58 51 51 62 70 65 61 61 66 69 78 81 84 81 84 79 73 65 90 66 67 65 61 58
39 19 16 17 4 4 7 9 12 11 13 3 30 42 53 50 46 60 73 71 69 69 65 64 64 65 67 70 68 62 52 57 49 55 64 70 74 75 64 63 63 49 51 63 71 58 47 52 59
24 25 21 18 10 1 3 4 14 7 8 7 9 22 36 41 52 59 69 70 72 75 75 69 63 57 55 52 52 53 53 48 29 27 26 27 36 27 33 23 21 30 36 42 44 38 37 35 32
14 14 14 6 9 9 11 13 12 3 10 6 8 26 18 9 19 32 54 68 79 81 78 64 57 46 41 39 41 41 40 36 32 29 29 32 33 43 26 31 36 38 36 41 43 39 35 45 55
30 19 5 4 7 10 18 10 4 15 15 8 16 29 24 16 13 17 34 54 66 62 62 57 48 37 25 22 24 21 20 19 16 20 31 28 31 32 34 37 38 45 44 44 51 48 50 53 59
36 19 11 11 10 9 14 11 4 8 8 29 45 42 37 36 36 38 35 46 54 53 51 47 42 37 28 23 18 11 10 11 5 9 19 20 28 33 38 42 45 46 49 53 46 49 49 54 50
20 26 19 8 2 11 11 6 8 9 20 27 36 48 45 50 55 58 55 58 60 58 53 46 41 38 29 20 15 10 8 9 9 13 14 19 19 14 17 19 23 31 31 32 31 36 39 48 55
20 20 13 4 8 8 2 7 10 5 15 18 21 36 46 61 73 74 74 70 63 55 47 38 33 28 24 19 16 13 8 2 4 8 15 23 19 19 17 19 21 25 30 33 36 40 45 51 55
16 16 9 13 5 10 8 5 9 8 8 25 20 39 56 63 60 59 60 58 55 50 47 44 39 36 32 25 18 12 10 11 12 9 9 9 14 21 26 27 29 32 36 38 41 45 51 55 59
11 13 12 10 7 6 9 4 2 8 7 18 31 53 62 66 66 66 63 63 59 55 47 42 36 30 26 19 14 12 9 10 8 12 12 18 24 32 35 39 42 42 43 46 48 50 52 54 57
Wind_Direction_850mb
248 240 260 294 41 59 267 253 243 298 311 346 326 263 190 185 171 213 155 165 171 169 169 169 169 167 165 163 161 158 159 159 164 166 166 166 164 161 159 157 155 150 144 141 137 134 128 122 123
239 219 215 142 115 148 259 237 242 320 295 326 324 285 246 344 8 186 157 167 174 172 172 171 171 170 169 166 165 162 159 157 160 163 164 166 164 162 160 161 158 152 149 145 143 140 133 129 134
197 187 166 151 167 196 235 210 105 324 312 322 306 342 345 358 356 190 188 169 174 174 174 172 173 173 172 170 172 167 163 161 161 166 167 167 167 165 166 166 161 158 154 151 151 150 148 145 143
160 164 130 151 208 242 228 150 21 358 318 324 340 314 56 1 359 284 170 175 176 177 175 176 175 176 176 177 178 175 172 168 166 168 169 169 170 171 172 170 166 164 161 159 160 161 163 164 164
178 151 128 230 249 252 241 255 339 293 289 287 335 284 340 347 28 160 172 174 179 178 177 178 179 180 180 181 184 182 182 178 172 173 175 173 173 176 177 175 175 174 171 170 169 170 173 179 179
161 133 120 219 231 250 268 263 254 243 288 295 334 335 296 130 142 143 172 174 180 180 178 179 180 182 186 187 189 190 191 191 183 179 183 181 181 182 183 184 184 184 181 181 182 179 178 181 187
166 123 214 213 242 261 244 250 225 256 267 324 306 167 244 165 156 162 167 172 178 183 181 181 183 184 188 193 198 198 199 200 197 193 192 191 190 188 188 188 188 193 194 191 193 192 189 190 194
213 135 200 221 211 260 273 211 246 289 281 326 333 214 223 179 179 170 157 169 178 177 181 189 192 192 192 195 197 200 206 207 207 206 205 207 201 198 196 196 198 203 203 201 202 203 205 205 206
202 208 223 211 174 233 229 139 263 272 289 329 339 264 257 182 177 165 156 162 173 179 184 193 203 205 202 201 203 201 202 205 210 215 217 219 215 211 208 208 208 211 211 210 211 211 214 217 220
183 204 213 200 198 256 263 290 300 292 298 329 313 321 188 171 179 168 160 151 159 174 201 202 206 211 212 212 211 207 206 205 207 212 218 226 226 223 219 219 219 219 219 218 219 222 226 227 232
207 235 209 246 237 231 256 285 270 260 282 308 196 176 175 173 182 172 165 177 177 165 186 201 214 213 214 215 217 215 213 211 213 218 224 231 233 234 231 225 224 226 226 226 228 231 233 234 237
229 213 224 249 244 259 248 280 274 247 258 279 289 239 199 187 189 191 187 191 191 203 226 219 209 211 213 214 217 218 217 217 219 222 227 232 238 241 240 237 233 232 234 238 240 242 245 244 245
227 242 224 234 256 261 268 266 274 269 266 276 284 240 211 198 196 198 212 203 213 207 201 204 208 211 213 213 216 218 218 220 225 229 233 240 243 246 249 246 241 239 237 241 244 251 252 251 251
216 214 239 249 255 257 255 267 252 271 275 265 235 219 213 206 199 201 193 202 207 203 216 219 213 212 213 216 219 222 222 219 228 233 243 249 253 255 254 249 245 243 244 246 244 252 257 250 251
251 273 279 233 234 234 250 264 253 269 255 238 246 208 206 212 206 208 209 217 218 216 235 227 217 212 216 221 223 221 225 218 226 236 243 250 254 259 258 253 246 245 243 246 255 264 261 250 250
189 162 250 212 194 242 182 253 280 281 230 229 227 207 190 196 201 209 217 221 219 221 220 225 224 224 217 219 220 214 210 209 216 234 245 253 251 249 253 253 248 252 254 255 257 257 258 260 259
280 202 185 265 194 215 179 147 256 236 193 200 202 210 205 202 209 209 213 213 213 208 218 228 229 221 215 217 217 213 214 218 222 239 234 254 254 252 250 247 247 241 264 258 259 255 262 264 257
208 194 221 212 228 212 241 217 268 265 232 221 228 230 216 216 211 211 212 211 210 211 224 239 236 228 224 220 216 217 220 234 253 244 239 246 259 261 254 249 251 251 252 260 262 254 250 256 261
218 226 210 190 239 201 244 231 256 260 250 236 239 227 215 212 220 211 214 218 221 227 229 229 230 226 221 219 221 229 226 236 254 239 230 227 236 240 229 238 263 249 242 256 257 257 259 261 263
229 237 213 269 264 175 278 268 257 261 233 235 243 238 219 213 209 211 215 220 216 215 218 219 223 226 225 226 235 235 243 257 246 234 239 242 241 235 235 257 261 257 248 239 262 252 256 260 261
213 216 167 200 11 275 356 305 295 274 225 242 253 253 248 215 211 209 210 212 219 221 216 212 216 220 224 229 237 240 246 249 250 250 252 250 244 247 255 271 279 264 237 248 275 263 257 258 267
213 177 193 233 123 217 115 271 304 260 230 208 249 255 255 245 222 213 212 212 217 213 215 208 215 222 226 229 230 230 239 252 262 267 262 261 264 266 271 271 266 241 233 248 266 267 271 272 263
210 178 195 222 176 304 244 42 271 301 116 204 250 252 249 248 242 224 210 216 219 213 209 210 210 214 219 223 226 235 237 238 234 252 264 263 246 268 252 226 251 238 230 244 258 266 272 275 283
137 161 200 169 117 241 205 159 281 357 314 201 85 37 21 304 256 227 216 216 213 212 208 207 210 215 214 215 219 223 235 230 231 257 274 274 257 247 259 234 225 252 239 246 251 257 267 281 270
177 155 174 195 191 211 157 151 240 309 304 310 98 65 60 70 98 141 177 197 202 197 202 203 207 201 196 198 206 212 226 245 255 260 281 272 266 252 243 243 238 243 245 240 241 252 247 262 265
190 154 163 170 152 158 143 198 247 311 21 75 90 92 91 94 106 111 127 154 164 166 169 173 173 168 170 172 169 159 140 118 89 344 318 311 274 259 252 245 248 247 246 247 244 236 248 250 255
186 197 200 66 286 110 145 114 106 49 52 62 74 82 85 102 107 109 117 123 128 128 128 134 138 131 123 104 84 65 47 51 33 327 283 243 236 229 223 230 240 251 254 252 257 262 258 252 255
167 167 178 120 178 126 156 128 147 101 91 87 84 91 94 104 105 106 107 108 110 112 113 116 119 118 112 113 103 94 99 117 238 224 235 237 256 264 265 256 258 259 262 261 262 262 264 263 265
205 186 163 136 148 148 133 187 167 169 152 129 121 113 113 110 107 108 109 109 109 111 109 104 102 101 97 93 87 78 49 28 4 329 287 283 277 284 291 296 289 283 282 282 280 279 278 279 279
145 198 157 155 210 55 116 231 99 153 132 134 123 123 119 118 118 119 117 116 112 108 106 101 96 90 85 78 60 44 22 357 323 311 305 303 303 301 302 301 301 299 295 294 293 293 292 292 292